User: anonymous   Login
Location: Unspecified
(0.0000°N, 0.0000°E)
Time: 08:58:20
(UTC+00:00)
Language:

Nadezhda 3 - Orbit

View from above orbital plane
View from above orbital plane
View from above satellite
View from above satellite

Ground track
Ground track

The orbit data is extracted from the following two-line orbital elements,

1 21152U 91019A   19345.55298988 +.00000016 +00000-0 +78727-6 0  9991
2 21152 082.9276 268.5164 0040516 224.4957 308.6433 13.74248596441294
Epoch (UTC): 11 December 2019 13:16:18
Eccentricity: 0.0040516
inclination: 82.9276°
perigee height: 954 km
apogee height: 1014 km
right ascension of ascending node: 268.5164°
argument of perigee: 224.4957°
revolutions per day: 13.74248596
mean anomaly at epoch: 308.6433°
orbit number at epoch: 44129

The dashed part of the orbit path shows where the satellite is in the earth's shadow,  

DLR